Showing default

CSG-1, 44873

Orbit data source: Space-Track

CSG-1, 44873 is an Italian payload satellite in SSO that was launched on Wed, 18 Dec 2019 UTC via a SOYUZ-ST-A launch vehicle from the French Guiana (FRGUI). Payload-class satellites include a variety of spacecraft equipped with specific instruments for various scientific and technological missions. These include communications satellites like Starlink; space stations such as the ISS; scientific satellites like the Hubble; Earth observation satellites from companies like Planet Labs, Umbra, and HawkEye 360; GPS; miniature CubeSats for education and research; and military/defense satellites.

Loading next visibility...
Identifier
44873, 2019-092A
Orbit
SSO
Country
Flag of ITIT
Related business
Manufacturer
Thales Alenia
Mission
Operational Defense Radar Imaging
Bus & Motor
PRIMA, AOCS
Mass
2,205 kg wet, ~1,800 kg dry
Launch date (UTC)
2019-12-18 (7 years ago)
Launch vehicle
SOYUZ-ST-A
Launch site
French Guiana (FRGUI)
Object type
Payload
Rocket body
Debris
Shape & HBR
Box + 3 Pan, 10.5 m
Radar Cross Section
14.025 m², Large (>1 m²)

Expand to show TLE details & history
Last TLE update: 7 hours ago

TLE from 7 hours ago
0 CSG-1
1 44873U 19092A   26255.95010896  .00000254  00000-0  38480-4 0  9993
2 44873  97.8917  78.3035 0001409  86.1489 273.9885 14.82156404364476
Epoch: 2026-09-12T22:48Z
TLE epoch observation values (Epoch: 2026-09-12T22:48:09.414Z)
Latitude
-0.00002°
Longitude
104.31251°
Altitude
625.482 km
Speed
7.546 km/s
True Right ascension
05h 13m 12s
True Declination
0° 00' 00"
Sunlit
Object was in daylight at epoch
Visualization orbit readout
Latitude
Unknown
Longitude
Unknown
Altitude
Unknown
Speed
Unknown
Apparent Right ascension
Unknown
Apparent Declination
Unknown
Sunlit
N/A
Visualization observer readout
Local Sidereal Time
22:15:52
Azimuth
Unknown
Elevation
Unknown
Doppler factor
Unknown
Orbital elements
Apogee altitude
620.549 km
Perigee altitude
618.577 km
Semi-major axis
6,997.7 km
Eccentricity
0.00014
Inclination
97.8917°
RAAN
78.3035°
Arg. of periapsis
86.1489°
True anomaly
273.97239°
Mean anomaly
273.9885°
Eccentric anomaly
273.98045°
Mean motion
3.70775 °/min
Orbital period
97.09 mins
BSTAR
0.00003848
Loading maneuver chart data...
Computing Atmospheric mass density...
Loading historical data...
Loading historical data...
Loading historical data...
Loading historical data...
Loading historical data...
Loading historical data...
Loading historical data...

Documentation

Showing up to 5 results
|